Location: Unspecified
(0.0000°N, 0.0000°E)
Time: 23:34:17
(UTC+00:00)

XCUBE-1 - Visible Passes

Search period start: 14 December 2025 00:00
Search period end: 24 December 2025 00:00
Orbit: 483 x 492 km, 45.0° (Epoch: 14 December)

Date Brightness Start Highest point End Pass type
(mag) Time Alt. Az. Time Alt. Az. Time Alt. Az.
17 Dec ? 19:20:14 10° NNW 19:22:18 28° N 19:22:18 28° N visible
18 Dec ? 18:54:01 10° NNW 18:57:36 43° NE 19:00:34 14° ESE visible
19 Dec ? 18:27:46 10° NNW 18:31:20 42° NE 18:34:55 10° ESE visible
19 Dec ? 20:09:08 10° WSW 20:10:05 11° SW 20:11:03 10° SSW visible
20 Dec ? 19:42:40 10° WSW 19:43:48 11° SW 19:44:56 10° SSW visible
21 Dec ? 19:16:13 10° WSW 19:17:30 11° SW 19:18:47 10° SSW visible
22 Dec ? 05:22:03 10° SSW 05:25:38 39° SE 05:29:12 10° ENE visible
22 Dec ? 18:49:46 10° WSW 18:51:11 12° SW 18:52:36 10° SSW visible
23 Dec ? 04:55:45 10° SSW 04:59:18 38° SE 05:02:51 10° ENE visible
